POPACS 2

Last updated on Wed Sep 17 2025 00:03:48 GMT+0000 (Coordinated Universal Time)

1 39269U 13055E 25259.27608552 .00019221 00000+0 36659-3 0 9997 2 39269 80.9928 95.1097 0463985 346.7996 12.1388 14.79001928622540
UTC large
Height (km)
Speed (km/s)
/
Latitude / Longitude
Inclination (degrees)
Orbital Period (minutes)
Azimuth
Elevation
Range (km)
Doppler Factor

Next 0 passes for location: London (51.5072 / 0.1276)

Sorry there are no passes over London.